Satellite: CO-58
Catalog number: 28895
Epoch time:      06264.17261139
Element set:     540
Inclination:      098.1529 deg
RA of node:       160.8927 deg
Eccentricity:    0.0017024
Arg of perigee:   230.7112 deg
Mean anomaly:     129.2595 deg
Mean motion:   14.59447231 rev/day
Decay rate:       1.72e-06 rev/day^2
Epoch rev:            4785
Checksum:              316

Satellite: NCUBE2
Catalog number: 28897
Epoch time:      06261.26045817
Element set:    0122
Inclination:      098.1515 deg
RA of node:       158.0092 deg
Eccentricity:    0.0016350
Arg of perigee:   243.4343 deg
Mean anomaly:     116.5149 deg
Mean motion:   14.59602340 rev/day
Decay rate:       1.44e-06 rev/day^2
Epoch rev:           03970
Checksum:              279

/EX




_______________________________________________
Via the Keps mailing list courtesy of AMSAT-NA
Keps@amsat.org
http://amsat.org/mailman/listinfo/keps

--- ViaMAIL!/WC v1.60d
 * Origin: Chowdanet (401-724-4410) telnet://chowdanet.com  (1:323/120)